Back to catalog

STARLINK-5663

AliveCommunicationsVLEO
NORAD 55347·PAYLOAD·🇺🇸 United States

Launched Jan 26, 2023 from Cape Canaveral Space Force Station

Loading…

Next Passes (next 24 hours)

TLE

FreshSource: CelesTrak SupGP

Epoch: Sep 14, 2026, 21:06 UTC

1 55347C 23013S   26257.87965278 -.00054455  00000+0 -19723-2 0  2572
2 55347  43.0037 314.6253 0002260 276.2000   6.7477 15.27605188    19

Track STARLINK-5663 in real time with AllMySat

Download on the App Store